SCP
3 3 3 2 2 1 1 0 1 1 1 1 1 0 0 0 0 0 0 0 0 0 0 0 0 1 1 1 1 1 1 1 1 1 1 1 1 1 1 1 1 1 1
3 3 3 2 2 1 1 0 1 1 1 1 1 0 0 0 0 0 0 0 0 0 0 0 0 1 1 1 1 1 0 1 1 1 1 1 1 1 1 1 1 1 1
3 3 3 2 2 1 1 0 1 1 1 1 1 1 0 0 0 0 0 0 0 0 0 0 0 0 1 1 1 0 0 1 1 1 1 1 1 1 1 1 1 1 1
3 3 3 2 2 1 0 0 0 1 2 2 1 1 0 0 0 0 0 0 0 0 0 0 0 0 0 1 0 0 0 0 1 0 0 1 1 1 1 1 1 1 1
3 3 3 2 1 1 0 0 0 1 1 2 1 1 0 0 0 0 0 0 0 0 0 0 0 0 0 0 0 0 0 0 0 0 0 1 1 1 1 1 1 1 1
4 4 3 2 1 1 0 0 0 0 1 1 1 1 0 0 0 0 0 0 0 0 0 0 0 0 0 0 0 0 0 0 1 1 1 1 1 1 1 1 1 1 1
4 3 2 1 1 0 0 0 0 0 1 1 1 1 0 0 0 0 0 0 0 0 0 0 0 0 0 0 0 0 0 1 1 1 1 1 1 1 1 1 1 1 1
4 3 2 1 0 0 0 0 0 0 0 1 1 1 0 0 0 0 0 0 0 0 0 0 0 0 0 0 0 0 1 1 1 1 1 1 1 1 1 1 1 1 1
4 3 1 1 0 0 0 0 0 0 0 0 1 0 0 0 0 0 0 0 0 0 0 0 0 0 0 0 0 0 0 1 1 1 1 1 1 1 1 1 1 1 1
3 2 1 0 0 0 0 0 0 0 0 0 0 0 0 0 0 0 0 0 0 0 0 0 0 0 0 0 0 0 0 0 1 1 1 1 1 1 1 1 1 1 1
2 1 1 0 0 0 0 0 0 0 0 0 0 0 0 0 0 0 0 0 0 0 0 0 0 0 0 0 0 0 0 0 0 0 0 1 1 1 1 1 1 1 1
1 1 0 0 0 0 0 0 0 0 0 0 0 0 0 0 0 0 0 0 0 0 0 0 0 0 0 0 0 0 0 0 0 0 0 1 1 1 1 1 1 1 1
0 0 0 0 0 0 0 0 0 0 0 0 0 0 0 0 0 0 0 0 0 0 0 0 0 0 0 0 0 0 0 0 0 0 0 1 1 1 1 1 1 1 1
0 0 0 0 0 0 0 0 0 0 0 0 0 0 0 0 0 0 0 0 0 0 0 0 0 0 0 0 0 0 0 0 0 0 0 0 0 0 0 1 1 1 1
0 0 0 0 0 0 0 0 0 0 0 0 0 0 0 0 0 0 0 0 0 0 0 0 0 0 0 0 0 0 0 0 0 0 0 0 0 0 0 1 1 1 0
0 0 0 0 0 0 0 0 0 0 0 0 0 0 0 0 0 0 0 0 0 0 0 0 0 0 0 0 0 0 0 0 0 0 0 0 0 0 0 0 0 0 0
0 0 0 0 0 0 0 0 0 0 0 0 0 0 0 0 0 0 0 0 0 0 0 0 0 0 0 0 0 0 0 0 0 0 0 0 0 0 0 0 0 0 0
0 0 0 0 0 0 0 0 0 0 0 0 0 0 0 0 0 0 0 0 0 0 0 0 0 0 0 0 0 0 0 0 0 0 0 0 0 0 0 0 0 0 0
0 0 0 0 0 0 0 0 0 1 0 0 0 0 0 0 0 0 0 0 0 0 0 0 0 0 0 0 0 0 0 0 0 0 0 0 0 0 0 0 0 0 0
0 0 0 0 0 0 0 0 1 1 0 0 0 0 0 0 0 0 0 0 0 0 0 0 0 0 0 0 0 0 0 0 0 0 0 0 0 0 0 0 0 0 0
0 0 0 0 0 0 0 0 1 0 0 0 0 0 0 0 0 0 0 0 0 0 0 0 0 0 0 0 0 0 0 0 0 0 0 0 0 0 0 0 0 0 0
0 0 0 0 0 0 0 0 0 0 0 0 0 0 0 0 0 0 0 0 0 0 0 0 0 0 0 0 0 0 0 0 0 0 0 0 0 0 0 0 0 0 0
0 0 0 0 0 0 0 0 0 0 0 0 0 0 0 0 0 0 0 0 0 0 0 0 0 0 0 0 0 0 0 0 0 0 0 0 0 0 0 0 0 0 0
0 0 0 0 0 0 0 0 0 0 0 0 0 0 0 0 0 0 0 0 0 0 0 0 0 0 0 0 0 0 0 0 0 0 0 0 0 0 0 0 0 0 0
0 0 0 0 0 0 0 0 0 0 0 0 0 0 0 0 0 0 0 0 0 0 0 0 0 0 0 0 0 0 0 0 0 0 0 0 0 0 0 0 0 0 0
0 0 0 0 0 0 0 0 0 0 0 0 0 0 0 0 0 0 0 0 0 0 0 0 0 0 0 0 0 0 0 0 0 0 0 0 0 0 0 0 0 0 0
Wind_Speed
3 3 2 2 2 2 2 2 3 3 4 4 4 4 4 5 5 4 3 7 7 7 8 8 8 9 9 9 10 9 10 10 10 10 10 10 10 10 10 10 10 11 11
3 3 3 2 2 2 2 2 3 3 3 3 4 5 4 4 4 4 3 4 6 7 7 7 7 8 8 8 9 9 9 9 9 10 9 9 9 9 9 9 9 10 10
3 3 3 2 2 2 3 2 3 3 3 3 4 4 3 3 3 3 3 2 3 5 6 6 6 7 7 7 8 8 8 8 8 8 9 9 9 9 9 9 9 9 9
4 3 2 2 2 3 3 2 2 3 3 3 3 2 2 2 3 3 3 2 2 2 4 5 5 5 6 6 7 7 7 7 7 7 7 8 8 8 8 9 9 8 8
4 3 2 2 2 2 2 2 2 2 3 3 3 3 2 2 2 2 2 3 3 3 2 4 5 5 5 5 5 6 6 6 6 6 6 6 6 6 7 7 8 8 8
4 3 3 3 3 2 2 3 3 2 3 3 3 3 2 1 1 2 2 2 2 3 2 2 2 3 4 5 5 4 4 4 5 4 5 5 5 5 5 6 6 6 7
4 4 3 3 3 3 3 3 3 4 2 3 3 2 1 1 2 2 1 2 2 2 2 2 2 1 1 3 4 3 3 3 3 3 3 3 3 4 4 4 5 5 5
3 3 4 3 3 3 3 3 4 2 2 2 3 3 1 1 1 1 1 1 1 1 1 1 1 2 1 1 2 3 3 2 2 2 2 3 3 3 3 3 3 3 4
3 3 4 3 3 3 3 3 3 4 3 2 2 3 3 3 1 0 0 1 1 1 1 0 1 1 1 1 1 1 2 2 1 1 1 2 2 2 1 1 2 2 3
4 4 4 4 4 3 4 3 2 2 3 3 2 1 1 2 3 1 0 0 0 1 1 0 0 0 1 1 1 1 2 2 1 1 0 1 1 1 0 0 1 1 1
3 3 4 4 4 4 4 4 3 2 2 3 3 2 1 1 2 3 2 1 1 1 1 1 1 1 1 1 1 1 0 1 2 2 2 2 2 1 1 1 1 1 1
2 3 3 3 4 4 4 4 4 4 3 2 2 2 3 3 3 3 3 2 2 1 1 1 1 1 1 1 1 1 0 2 3 3 4 3 3 3 3 2 2 2 1
2 3 4 4 4 4 4 4 4 4 4 4 3 3 2 2 2 2 3 2 1 1 1 1 2 2 1 1 2 2 2 3 3 4 5 4 3 4 4 3 2 2 2
3 4 4 4 4 4 4 5 4 4 4 4 4 3 2 2 2 2 3 3 1 1 2 3 1 2 2 2 3 3 2 3 4 5 5 4 4 4 4 3 3 3 2
2 3 3 4 4 4 4 4 4 5 4 5 4 4 3 3 2 2 2 3 4 3 4 3 2 2 2 2 3 2 2 4 4 5 4 4 3 4 3 3 3 3 3
2 2 3 4 4 4 4 4 4 4 5 4 4 5 4 3 3 3 3 2 2 3 3 2 2 2 2 2 4 2 3 5 5 5 5 4 3 3 4 3 3 3 4
3 3 3 3 4 4 4 4 4 4 5 5 4 5 5 4 3 3 3 3 3 3 3 2 1 1 2 2 2 2 3 3 3 6 6 5 5 4 5 4 4 4 5
2 3 3 3 4 4 4 5 5 5 6 6 6 6 5 4 5 4 4 4 3 3 4 4 2 2 3 3 3 2 2 3 3 6 7 7 7 6 6 5 5 5 5
2 2 3 3 3 4 5 5 5 6 5 6 6 6 6 6 6 5 5 5 4 3 3 3 3 2 2 2 2 2 2 2 3 4 6 7 7 7 7 6 6 5 5
2 3 3 3 3 3 4 5 5 5 5 5 5 6 6 6 7 6 5 6 4 4 3 3 3 3 2 2 2 2 2 2 2 2 4 5 6 8 8 7 6 5 5
2 2 2 3 3 3 4 5 5 5 5 5 5 5 5 7 8 7 6 6 5 4 4 4 4 3 3 3 3 3 3 2 3 2 2 3 3 3 4 6 6 6 6
2 2 3 3 3 3 5 6 5 5 5 5 5 5 5 6 7 9 10 9 9 7 7 6 5 5 6 4 3 3 3 2 3 2 2 3 2 3 3 3 6 7 7
2 2 3 3 3 4 6 7 6 4 4 5 5 5 4 5 6 5 6 7 8 10 10 8 7 7 6 6 5 5 4 4 4 3 2 4 3 4 3 4 7 8 8
2 3 3 3 3 4 6 7 6 4 3 4 5 5 5 5 5 5 5 5 5 5 6 6 6 6 5 5 6 6 5 3 2 2 2 4 3 3 3 3 7 8 8
2 2 3 3 3 4 6 6 5 2 3 3 4 4 5 5 7 8 5 5 5 4 5 6 6 6 7 7 6 3 3 3 3 3 2 2 2 2 2 3 5 8 8
2 2 2 3 3 3 6 6 4 2 3 3 3 4 6 7 8 8 6 5 6 4 3 3 3 4 4 5 7 6 5 4 3 3 3 2 2 1 2 2 2 2 4
Wind_Direction
100 97 94 91 89 86 87 92 92 84 76 67 66 67 68 72 73 66 60 65 76 84 93 98 99 96 92 91 88 86 85 82 80 78 76 73 70 71 74 72 69 65 64
102 99 95 95 92 88 82 91 98 91 82 74 66 61 60 69 76 72 64 56 67 78 87 94 101 102 99 97 95 91 89 86 82 80 78 75 71 70 71 71 70 69 67
106 105 107 100 105 105 98 88 92 93 87 76 70 64 56 61 76 77 68 60 62 68 76 86 95 101 103 101 100 96 92 90 86 82 79 75 73 70 68 70 72 70 69
106 109 111 109 113 112 108 108 106 105 100 93 82 66 58 55 65 73 69 70 68 65 61 72 81 88 96 100 102 100 96 92 87 83 82 81 77 72 67 68 69 68 66
116 116 115 112 114 116 118 118 102 114 113 102 93 74 57 49 49 70 74 70 73 73 67 65 72 76 82 91 96 99 98 97 91 85 82 82 80 80 76 70 67 66 65
127 123 130 129 125 131 127 121 120 104 115 116 96 75 60 57 50 62 71 67 71 77 73 77 77 73 73 75 78 87 94 104 101 92 84 83 80 79 80 78 71 65 62
140 138 137 137 136 138 139 135 131 121 121 120 102 84 40 53 72 46 53 76 71 69 68 72 76 81 85 75 67 70 83 94 108 105 94 93 86 81 82 80 75 67 59
152 146 144 151 148 139 146 153 141 136 146 150 138 137 126 9 4 35 62 82 87 66 62 58 80 77 79 84 66 58 56 63 78 104 118 112 102 86 82 75 66 60 53
161 160 162 158 157 158 162 171 163 152 164 190 158 153 158 187 168 273 142 103 95 90 67 45 83 85 91 97 113 59 40 34 44 59 127 128 122 106 84 67 57 54 48
166 166 166 166 169 169 167 179 173 170 163 182 190 167 149 144 155 174 259 231 130 147 166 109 56 160 126 121 114 74 32 358 330 331 271 203 177 152 150 133 42 18 26
164 164 167 170 174 173 173 177 174 186 185 188 181 167 152 136 152 163 196 216 268 243 201 186 189 198 178 153 155 154 54 323 290 278 276 266 260 265 260 253 250 298 331
169 171 171 173 176 174 177 183 183 192 198 205 201 179 172 170 181 173 181 191 214 244 236 211 197 193 185 158 175 173 238 285 284 278 271 276 279 273 265 262 258 274 288
180 189 184 181 181 183 184 182 187 197 198 202 208 203 197 193 175 172 169 180 202 245 223 235 210 195 201 161 180 205 230 262 273 273 269 270 281 281 273 264 257 281 289
196 189 191 185 187 185 188 183 188 199 199 203 212 202 197 199 182 179 175 163 177 233 228 231 231 199 196 185 208 214 220 247 263 268 269 273 288 298 281 263 257 259 277
212 193 191 187 187 188 188 183 191 198 198 200 206 200 198 202 193 189 182 178 179 205 234 219 214 208 200 191 206 193 207 239 255 265 271 273 285 297 275 269 266 268 273
196 191 189 194 189 190 191 191 194 198 201 201 203 198 201 203 196 190 194 201 204 200 230 218 216 209 199 215 222 199 211 232 243 250 255 255 258 279 265 253 261 265 266
195 193 194 199 192 191 194 194 200 200 201 204 207 200 205 202 199 198 198 204 214 203 225 253 236 204 196 213 231 218 219 216 226 238 243 244 246 253 259 248 254 261 263
201 200 192 199 204 196 196 196 201 204 204 204 207 202 206 202 202 200 198 206 214 210 205 225 226 208 210 210 211 220 235 227 225 238 238 239 242 247 255 244 250 259 264
198 205 198 202 213 207 203 206 204 204 208 210 207 205 206 201 209 207 204 209 214 218 207 206 217 211 213 201 201 229 242 239 244 240 239 241 243 249 253 242 239 243 255
203 207 207 207 217 220 212 209 208 205 207 213 212 210 209 207 210 205 207 208 207 208 206 205 205 206 208 206 189 206 235 233 247 251 250 251 252 255 251 241 238 241 251
225 216 204 209 217 222 215 205 204 206 212 215 214 215 215 218 221 217 213 203 197 202 202 208 208 201 200 194 205 203 220 231 248 233 243 249 250 253 242 238 237 244 250
214 216 210 209 215 234 234 226 219 205 212 214 214 217 221 222 226 230 229 222 211 205 204 208 212 207 209 205 198 201 204 213 246 218 222 249 229 243 236 224 242 249 249
207 220 227 222 223 231 240 232 232 222 212 217 216 212 220 222 219 215 224 232 234 231 221 209 210 211 205 200 194 205 213 225 237 214 209 248 233 244 241 239 247 251 253
219 225 231 232 239 245 247 241 232 224 218 222 216 211 213 213 211 209 208 214 224 230 230 220 214 215 208 198 197 204 211 227 259 233 199 244 240 246 248 238 246 250 255
237 238 234 229 235 250 250 247 232 215 224 230 223 216 213 211 218 220 209 212 225 236 244 238 232 228 225 218 208 192 198 211 243 236 201 228 248 265 256 245 246 251 255
233 238 244 238 238 245 250 249 231 207 224 235 227 222 226 222 222 222 209 205 218 223 218 227 228 233 224 214 215 209 203 210 225 238 202 201 223 246 271 250 235 237 248